Location: Molino di Ancona
(43.6167°N, 13.3667°E)
Time: 20:16:23
(UTC+00:00)

SKYMED 2 - Pass Details

Date: 15 December 2019
Orbit: 621 x 623 km, 97.9° (Epoch: 26 January)

Event Time Altitude Azimuth Distance (km) Brightness Sun altitude
Rises 04:46:34 0° 183° (S) 2,890 7.2 -18.4°
Reaches altitude 10° 04:48:50 10° 190° (S) 1,988 6.2 -18.0°
Maximum altitude 04:52:56 42° 261° (W) 898 3.9 -17.3°
Enters shadow 04:54:29 30° 308° (NW) 1,119 4.3 -17.0°
